Location: Izdebno
(52.6670°N, 16.2170°E)
Time: 04:27:01
(UTC+02:00)

A-11 Canister half - Pass Details

Date: 17 February 2023
Orbit: 1526 x 1682 km, 47.3° (Epoch: 24 March)

Event Time Altitude Azimuth Distance (km) Brightness Sun altitude
Rises 07:01:07 0° 280° (W) 4,682 - -1.9°
Exits shadow 07:01:40 - 279° (W) 4,512 10.8 -1.8°
Reaches altitude 10° 07:04:17 10° 275° (W) 3,697 10.4 -1.4°
Maximum altitude 07:13:00 47° 205° (SSW) 1,943 9.6 -0.2°
Drops below altitude 10° 07:21:50 10° 136° (SE) 3,741 12.4 1.1°
Sets 07:25:03 0° 131° (SE) 4,742 13.3 1.5°
